TimeBST,TemperatureF,Dew PointF,Humidity,Sea Level PressureIn,VisibilityMPH,Wind Direction,Wind SpeedMPH,Gust SpeedMPH,PrecipitationIn,Events,Conditions,WindDirDegrees,DateUTC
12:20 AM,60.8,55.4,82,29.59,6.2,West,16.1,-,N/A,,Partly Cloudy,280,2013-08-17 23:20:00
12:50 AM,60.8,55.4,82,29.62,6.2,West,16.1,-,N/A,,Scattered Clouds,280,2013-08-17 23:50:00
1:20 AM,59.0,57.2,94,29.62,6.2,West,15.0,-,N/A,Rain,Light Rain,270,2013-08-18 00:20:00
1:50 AM,59.0,55.4,88,29.62,6.2,West,11.5,-,N/A,,Scattered Clouds,270,2013-08-18 00:50:00
2:20 AM,59.0,55.4,88,29.62,6.2,West,11.5,-,N/A,,Mostly Cloudy,280,2013-08-18 01:20:00
2:50 AM,57.2,53.6,88,29.65,6.2,West,12.7,-,N/A,,Mostly Cloudy,270,2013-08-18 01:50:00
3:20 AM,59.0,55.4,88,29.65,6.2,West,9.2,-,N/A,,Mostly Cloudy,260,2013-08-18 02:20:00
3:50 AM,57.2,55.4,94,29.65,6.2,West,9.2,-,N/A,,Partly Cloudy,260,2013-08-18 02:50:00
4:20 AM,57.2,53.6,88,29.65,6.2,West,11.5,-,N/A,,Partly Cloudy,260,2013-08-18 03:20:00
4:50 AM,57.2,53.6,88,29.65,6.2,WSW,11.5,-,N/A,,Partly Cloudy,250,2013-08-18 03:50:00
5:20 AM,57.2,51.8,82,29.65,6.2,WSW,9.2,-,N/A,,Partly Cloudy,240,2013-08-18 04:20:00
5:50 AM,57.2,53.6,88,29.68,6.2,WSW,8.1,-,N/A,,Partly Cloudy,240,2013-08-18 04:50:00
6:20 AM,57.2,53.6,88,29.68,6.2,WSW,8.1,-,N/A,,Partly Cloudy,240,2013-08-18 05:20:00
6:50 AM,57.2,51.8,82,29.68,6.2,WSW,8.1,-,N/A,,Partly Cloudy,250,2013-08-18 05:50:00
7:20 AM,57.2,51.8,82,29.68,6.2,WSW,9.2,-,N/A,,Partly Cloudy,250,2013-08-18 06:20:00
7:50 AM,59.0,51.8,77,29.71,6.2,WSW,10.4,-,N/A,,Partly Cloudy,250,2013-08-18 06:50:00
8:20 AM,59.0,51.8,77,29.71,6.2,West,11.5,-,N/A,,Partly Cloudy,260,2013-08-18 07:20:00
8:50 AM,60.8,51.8,72,29.71,6.2,West,13.8,-,N/A,,Partly Cloudy,260,2013-08-18 07:50:00
9:20 AM,62.6,51.8,68,29.74,6.2,West,13.8,-,N/A,,Partly Cloudy,260,2013-08-18 08:20:00
9:50 AM,62.6,51.8,68,29.74,6.2,West,15.0,-,N/A,,Partly Cloudy,260,2013-08-18 08:50:00
10:20 AM,64.4,51.8,64,29.74,6.2,West,17.3,-,N/A,,Partly Cloudy,260,2013-08-18 09:20:00
10:50 AM,62.6,51.8,68,29.74,6.2,West,18.4,-,N/A,,Partly Cloudy,280,2013-08-18 09:50:00
11:20 AM,62.6,51.8,68,29.77,6.2,West,18.4,-,N/A,,Partly Cloudy,280,2013-08-18 10:20:00
12:20 PM,62.6,48.2,59,29.77,6.2,WNW,15.0,-,N/A,,Partly Cloudy,290,2013-08-18 11:20:00
1:20 PM,62.6,50.0,63,29.77,6.2,WNW,15.0,-,N/A,,Partly Cloudy,290,2013-08-18 12:20:00
1:50 PM,62.6,51.8,68,29.80,6.2,WNW,11.5,-,N/A,,Partly Cloudy,290,2013-08-18 12:50:00
2:20 PM,64.4,51.8,64,29.80,6.2,West,13.8,-,N/A,,Partly Cloudy,280,2013-08-18 13:20:00
2:50 PM,64.4,50.0,59,29.80,6.2,WNW,16.1,-,N/A,,Scattered Clouds,290,2013-08-18 13:50:00
3:20 PM,64.4,48.2,56,29.80,6.2,WNW,13.8,-,N/A,,Scattered Clouds,290,2013-08-18 14:20:00
3:50 PM,62.6,50.0,63,29.80,6.2,West,13.8,-,N/A,,Scattered Clouds,280,2013-08-18 14:50:00
4:20 PM,62.6,50.0,63,29.80,6.2,West,13.8,-,N/A,,Partly Cloudy,280,2013-08-18 15:20:00
4:50 PM,64.4,48.2,56,29.80,6.2,WNW,16.1,-,N/A,,Partly Cloudy,290,2013-08-18 15:50:00
5:20 PM,64.4,48.2,56,29.80,6.2,WNW,15.0,-,N/A,,Partly Cloudy,290,2013-08-18 16:20:00
5:50 PM,64.4,48.2,56,29.83,6.2,WNW,11.5,-,N/A,,Partly Cloudy,300,2013-08-18 16:50:00
6:20 PM,62.6,48.2,59,29.83,6.2,WNW,9.2,-,N/A,,Partly Cloudy,290,2013-08-18 17:20:00
6:50 PM,62.6,50.0,63,29.83,6.2,WSW,11.5,-,N/A,,Scattered Clouds,250,2013-08-18 17:50:00
7:20 PM,60.8,50.0,68,29.83,6.2,WSW,11.5,-,N/A,,Partly Cloudy,250,2013-08-18 18:20:00
7:50 PM,60.8,51.8,72,29.83,6.2,West,9.2,-,N/A,,Partly Cloudy,260,2013-08-18 18:50:00
8:20 PM,60.8,50.0,68,29.83,6.2,WSW,10.4,-,N/A,,Partly Cloudy,250,2013-08-18 19:20:00
8:50 PM,60.8,50.0,68,29.86,6.2,WSW,12.7,-,N/A,,Partly Cloudy,250,2013-08-18 19:50:00
9:20 PM,60.8,51.8,72,29.86,-9999.0,WSW,11.5,-,N/A,,Clear,250,2013-08-18 20:20:00
9:50 PM,60.8,51.8,72,29.86,-9999.0,WSW,10.4,-,N/A,,Clear,250,2013-08-18 20:50:00
10:20 PM,59.0,51.8,77,29.86,-9999.0,WSW,11.5,-,N/A,,Clear,250,2013-08-18 21:20:00
10:50 PM,59.0,51.8,77,29.86,-9999.0,WSW,10.4,-,N/A,,Clear,250,2013-08-18 21:50:00
11:20 PM,60.8,51.8,72,29.86,-9999.0,WSW,10.4,-,N/A,,Clear,250,2013-08-18 22:20:00
11:50 PM,59.0,51.8,77,29.89,-9999.0,West,10.4,-,N/A,,Clear,260,2013-08-18 22:50:00